Regional Weather Roundup
Issued by NWS

Home | Current Version | Previous Version | Graphics & Text | Print | Product List | Glossary On
Versions: 1 2 3 4 5 6 7 8 9 10 11 12 13 14 15 16 17 18 19 20 21 22 23 24 25 26 27 28 29 30 31 32 33 34 35 36 37 38 39 40 41 42 43 44 45 46 47 48 49 50
000
ASUS45 KABQ 281910
RWRNM
NEW MEXICO REGIONAL WEATHER ROUNDUP
NATIONAL WEATHER SERVICE ALBUQUERQUE NM
100 PM MDT FRI AUG 28 2015

NOTE: "FAIR" MEANS FEW OR NO CLOUDS BELOW 12,000 FEET AGL WITH NO
       SIGNIFICANT WEATHER OR OBSTRUCTIONS TO VISION.

      THIS PRODUCT IS RELEASED AS TWO VERSIONS.  ONE VERSION NEAR
      THE TOP OF THE HOUR CONTAINING PRELIMINARY DATA FROM ALBUQUERQUE
      AND OTHER STATIONS.  A FINAL VERSION WITH ADDITIONAL DATA IS
      ISSUED ABOUT 10 MINUTES AFTER THE HOUR.

NMZ501-503-504-510>518-282000-
NORTHWEST PLATEAU/NORTHCENTRAL MOUNTAINS

CITY           SKY/WX    TMP DP  RH WIND       PRES   REMARKS
FARMINGTON     SUNNY     83  48  29 W7        30.22F
LOS ALAMOS     MOSUNNY   74  42  31 NE5       30.34F
SANTA FE       MOSUNNY   83  43  24 NW6G18    30.25F
TAOS           MOSUNNY   79  41  25 NW12      30.33F
ANGEL FIRE     FAIR      70  47  44 NE9       30.42F

$$
NMZ402-403-502-505>509-282000-
WESTCENTRAL MOUNTAINS/SOUTHWEST MOUNTAINS

CITY           SKY/WX    TMP DP  RH WIND       PRES   REMARKS
GALLUP         SUNNY     82  44  26 NE12G20   30.30F
GRANTS         SUNNY     81  48  32 NW7       30.30F
SILVER CITY      N/A     84  46  26 W8        30.22F

$$
NMZ407-409-411-412-282000-
SOUTHERN DESERTS

CITY           SKY/WX    TMP DP  RH WIND       PRES   REMARKS
LORDSBURG      FAIR      86  52  30 CALM      30.13F
DEMING         SUNNY     90  53  28 S8        30.12F
LAS CRUCES     SUNNY     90  50  25 SW6       30.12F
HOLLOMAN AFB   MOSUNNY   93  52  24 N9        30.07F
ALAMOGORDO     MOSUNNY   91  50  24 E5        30.10F
T OR C         SUNNY     89  52  28 E6        30.14F

$$
NMZ519>523-282000-
CENTRAL VALLEYS/CENTRAL HIGHLANDS

CITY           SKY/WX    TMP DP  RH WIND       PRES   REMARKS
ALBUQUERQUE    PTSUNNY   84  51  31 NW6       30.21F
DOUBLE EAGLE   MOSUNNY   84  52  32 NE5       30.25F
MORIARTY ARPT  FAIR      81  47  30 N3        30.26F
CLINES CORNERS PTSUNNY   78  50  37 CALM      30.30F
BELEN          FAIR      85  50  29 N5        30.19F
SOCORRO        FAIR      86  49  27 NE6       30.16F

$$
NMZ524>526-539-540-282000-
SOUTHCENTRAL MOUNTAINS

CITY           SKY/WX    TMP DP  RH WIND       PRES   REMARKS
RUIDOSO        MOSUNNY   79  50  36 MISG      30.31F

$$
NMZ527>531-282000-
NORTHEAST HIGHLANDS/NORTHEAST PLAINS

CITY           SKY/WX    TMP DP  RH WIND       PRES   REMARKS
LAS VEGAS      MOSUNNY   79  48  33 E15G22    30.31F
RATON          MOSUNNY   82  44  26 VRB6G22   30.26F
CLAYTON        SUNNY     84  59  42 NE10      30.20F

$$
NMZ532>537-282000-
EASTCENTRAL PLAINS

CITY           SKY/WX    TMP DP  RH WIND       PRES   REMARKS
TUCUMCARI      SUNNY     90  55  30 NE13G22   30.09F
CANNON AFB     SUNNY     88  57  35 NE12G18   30.10F
CLOVIS AIRPORT SUNNY     90  57  33 N10       30.12F

$$
NMZ028-029-538-282000-
SOUTHEAST PLAINS

CITY           SKY/WX    TMP DP  RH WIND       PRES   REMARKS
ROSWELL        SUNNY     94  57  28 NE12      30.05F
ARTESIA        MOSUNNY   91  57  31 N9G20     30.05F
CARLSBAD       MOSUNNY   97  53  22 VRB5      30.01
HOBBS          MOSUNNY   93  52  24 SW6       30.05F


$$



USA.gov is the U.S. government's official web portal to all federal, state and local government web resources and services.